Retour au catalogue

STARLINK-35605

ActifCommunicationsVLEO
NORAD 66150·PAYLOAD·🇺🇸 United States

Lancé Oct 25, 2025 depuis Cape Canaveral Space Force Station

Loading…

Prochains Passages (prochaines 24 heures)

TLE

FraisSource: CelesTrak SupGP

Époque: Sep 14, 2026, 22:34 UTC

1 66150C 25240E   26257.94076389  .00042195  00000+0  12467-2 0  2578
2 66150  53.1566 261.3501 0001234  96.9580  48.1083 15.34368666    14

Suivez STARLINK-35605 en temps réel avec AllMySat

Download on the App Store